Time,TemperatureF,DewpointF,PressureIn,WindDirection,WindDirectionDegrees,WindSpeedMPH,WindSpeedGustMPH,Humidity,HourlyPrecipIn,Conditions,Clouds,dailyrainin,SolarRadiationWatts/m^2,SoftwareType,DateUTC
2013-05-25 00:21:00,57.0,7.0,30.02,East,92,3.0,4.0,13,-99.99,,,-99.99,0.000000,,2013-05-25 07:21:00,
2013-05-25 01:22:00,54.0,27.0,30.02,SE,138,4.0,5.0,34,-99.99,,,-99.99,0.000000,,2013-05-25 08:22:00,
2013-05-25 02:21:00,55.0,22.0,30.01,WNW,286,1.0,1.0,27,-99.99,,,-99.99,0.000000,,2013-05-25 09:21:00,
2013-05-25 03:22:00,54.0,16.0,30.00,East,96,2.0,3.0,22,-99.99,,,-99.99,0.000000,,2013-05-25 10:22:00,
2013-05-25 04:21:00,52.0,14.0,30.00,NNE,18,3.0,4.0,22,-99.99,,,-99.99,0.000000,,2013-05-25 11:21:00,
2013-05-25 05:22:00,50.0,21.0,30.01,North,350,2.0,3.0,31,-99.99,,,-99.99,0.000000,,2013-05-25 12:22:00,
2013-05-25 06:21:00,49.0,24.0,30.01,NW,316,3.0,4.0,38,-99.99,,,-99.99,0.000000,,2013-05-25 13:21:00,
2013-05-25 07:22:00,50.0,25.0,30.01,NNW,329,4.0,8.0,37,-99.99,,,-99.99,19.000000,,2013-05-25 14:22:00,
2013-05-25 08:22:00,54.0,26.0,30.03,NW,316,2.0,4.0,33,-99.99,,,-99.99,344.000000,,2013-05-25 15:22:00,
2013-05-25 08:40:00,56.0,26.0,30.04,West,278,2.0,3.0,32,-99.99,,,-99.99,569.000000,,2013-05-25 15:40:00,
2013-05-25 09:32:00,56.0,26.0,30.04,West,278,2.0,3.0,32,-99.99,,,-99.99,569.000000,,2013-05-25 16:32:00,
2013-05-25 09:40:00,58.0,30.0,30.04,WNW,288,2.0,3.0,34,-99.99,,,-99.99,765.000000,,2013-05-25 16:40:00,
2013-05-25 10:22:00,58.0,30.0,30.04,WNW,288,2.0,3.0,34,-99.99,,,-99.99,765.000000,,2013-05-25 17:22:00,
2013-05-25 10:32:00,58.0,30.0,30.04,WNW,288,2.0,3.0,34,-99.99,,,-99.99,765.000000,,2013-05-25 17:32:00,
2013-05-25 10:40:00,56.0,43.0,30.05,WSW,254,2.0,4.0,61,-99.99,,,-99.99,939.000000,,2013-05-25 17:40:00,
2013-05-25 11:21:00,56.0,43.0,30.05,WSW,254,2.0,4.0,61,-99.99,,,-99.99,939.000000,,2013-05-25 18:21:00,
2013-05-25 11:32:00,56.0,43.0,30.05,WSW,254,2.0,4.0,61,-99.99,,,-99.99,939.000000,,2013-05-25 18:32:00,
2013-05-25 11:40:00,56.0,43.0,30.06,West,262,4.0,6.0,63,-99.99,,,-99.99,1040.000000,,2013-05-25 18:40:00,
2013-05-25 12:21:00,56.0,43.0,30.06,West,262,4.0,6.0,63,-99.99,,,-99.99,1040.000000,,2013-05-25 19:21:00,
2013-05-25 12:32:00,56.0,43.0,30.06,West,262,4.0,6.0,63,-99.99,,,-99.99,1040.000000,,2013-05-25 19:32:00,
2013-05-25 12:40:00,59.0,45.0,30.06,West,270,3.0,5.0,59,-99.99,,,-99.99,1068.000000,,2013-05-25 19:40:00,
2013-05-25 13:21:00,59.0,45.0,30.06,West,270,3.0,5.0,59,-99.99,,,-99.99,1068.000000,,2013-05-25 20:21:00,
2013-05-25 13:32:00,59.0,45.0,30.06,West,270,3.0,5.0,59,-99.99,,,-99.99,1068.000000,,2013-05-25 20:32:00,
2013-05-25 13:40:00,60.0,45.0,30.06,West,265,4.0,6.0,58,-99.99,,,-99.99,1052.000000,,2013-05-25 20:40:00,
2013-05-25 14:21:00,60.0,45.0,30.06,West,265,4.0,6.0,58,-99.99,,,-99.99,1052.000000,,2013-05-25 21:21:00,
2013-05-25 14:33:00,60.0,45.0,30.06,West,265,4.0,6.0,58,-99.99,,,-99.99,1052.000000,,2013-05-25 21:33:00,
2013-05-25 14:40:00,60.0,44.0,30.06,WSW,253,3.0,6.0,56,-99.99,,,-99.99,978.000000,,2013-05-25 21:40:00,
2013-05-25 15:22:00,60.0,44.0,30.06,WSW,253,3.0,6.0,56,-99.99,,,-99.99,978.000000,,2013-05-25 22:22:00,
2013-05-25 15:32:00,60.0,44.0,30.06,WSW,253,3.0,6.0,56,-99.99,,,-99.99,978.000000,,2013-05-25 22:32:00,
2013-05-25 15:40:00,61.0,45.0,30.06,West,268,4.0,7.0,56,-99.99,,,-99.99,853.000000,,2013-05-25 22:40:00,
2013-05-25 16:22:00,61.0,45.0,30.06,West,268,4.0,7.0,56,-99.99,,,-99.99,853.000000,,2013-05-25 23:22:00,
2013-05-25 16:32:00,61.0,45.0,30.06,West,268,4.0,7.0,56,-99.99,,,-99.99,853.000000,,2013-05-25 23:32:00,
2013-05-25 16:40:00,63.0,45.0,30.06,West,278,2.0,4.0,52,-99.99,,,-99.99,687.000000,,2013-05-25 23:40:00,
2013-05-25 17:21:00,63.0,45.0,30.06,West,278,2.0,4.0,52,-99.99,,,-99.99,687.000000,,2013-05-26 00:21:00,
2013-05-25 17:31:00,63.0,45.0,30.06,West,278,2.0,4.0,52,-99.99,,,-99.99,687.000000,,2013-05-26 00:31:00,
2013-05-25 17:40:00,62.0,44.0,30.05,WNW,284,2.0,4.0,52,-99.99,,,-99.99,483.000000,,2013-05-26 00:40:00,
2013-05-25 18:21:00,62.0,44.0,30.05,WNW,284,2.0,4.0,52,-99.99,,,-99.99,483.000000,,2013-05-26 01:21:00,
2013-05-25 18:32:00,62.0,44.0,30.05,WNW,284,2.0,4.0,52,-99.99,,,-99.99,483.000000,,2013-05-26 01:32:00,
2013-05-25 18:40:00,62.0,42.0,30.04,WNW,296,2.0,4.0,48,-99.99,,,-99.99,269.000000,,2013-05-26 01:40:00,
2013-05-25 19:21:00,62.0,42.0,30.04,WNW,296,2.0,4.0,48,-99.99,,,-99.99,269.000000,,2013-05-26 02:21:00,
2013-05-25 19:32:00,62.0,42.0,30.04,WNW,296,2.0,4.0,48,-99.99,,,-99.99,269.000000,,2013-05-26 02:32:00,
2013-05-25 19:40:00,60.0,41.0,30.04,NW,320,3.0,5.0,50,-99.99,,,-99.99,84.000000,,2013-05-26 02:40:00,
2013-05-25 20:21:00,60.0,41.0,30.04,NW,320,3.0,5.0,50,-99.99,,,-99.99,84.000000,,2013-05-26 03:21:00,
2013-05-25 20:33:00,60.0,41.0,30.04,NW,320,3.0,5.0,50,-99.99,,,-99.99,84.000000,,2013-05-26 03:33:00,
2013-05-25 20:40:00,55.0,41.0,30.04,NNW,330,4.0,6.0,59,-99.99,,,-99.99,0.000000,,2013-05-26 03:40:00,
2013-05-25 21:23:00,55.0,41.0,30.04,NNW,330,4.0,6.0,59,-99.99,,,-99.99,0.000000,,2013-05-26 04:23:00,
2013-05-25 21:33:00,55.0,41.0,30.04,NNW,330,4.0,6.0,59,-99.99,,,-99.99,0.000000,,2013-05-26 04:33:00,
2013-05-25 21:40:00,56.0,37.0,30.05,NNE,18,2.0,3.0,48,-99.99,,,-99.99,0.000000,,2013-05-26 04:40:00,
2013-05-25 22:22:00,56.0,37.0,30.05,NNE,18,2.0,3.0,48,-99.99,,,-99.99,0.000000,,2013-05-26 05:22:00,
2013-05-25 22:32:00,56.0,37.0,30.05,NNE,18,2.0,3.0,48,-99.99,,,-99.99,0.000000,,2013-05-26 05:32:00,
2013-05-25 22:40:00,53.0,32.0,30.06,North,6,4.0,6.0,44,-99.99,,,-99.99,0.000000,,2013-05-26 05:40:00,
2013-05-25 23:21:00,53.0,32.0,30.06,North,6,4.0,6.0,44,-99.99,,,-99.99,0.000000,,2013-05-26 06:21:00,
2013-05-25 23:32:00,53.0,32.0,30.06,North,6,4.0,6.0,44,-99.99,,,-99.99,0.000000,,2013-05-26 06:32:00,